When you browse on this site, cookies collect data to enhance your experience and personalize the content and advertising you see.
Visit our Privacy Policy to learn more. By continuing to use the site, you agree to this use of cookies and data.
  • en Suisse
  • Liste des pays
  • À 7 jours
  • Température de l'eau
  • Carte météo
  • Widgets météo
  • user-avatar
    Se connecter

    Météo par heure à Ahtopol

    Ce jour, 16 Octobre, Mercredi

    Heure Température Précipitation Vent Pression Humidité
    00:00 +14°C° 0 mm 1 m/s 761 mmHg 95%
    01:00 +13°C° 0 mm 0 m/s 761 mmHg 94%
    02:00 +13°C° 0 mm 0 m/s 761 mmHg 94%
    03:00 +12°C° 0 mm 0 m/s 761 mmHg 94%
    04:00 +12°C° 0 mm 0 m/s 761 mmHg 94%
    05:00 +13°C° 0 mm 1 m/s 761 mmHg 94%
    06:00 +14°C° 0 mm 1 m/s 761 mmHg 92%
    07:00 +15°C° 0 mm 1 m/s 761 mmHg 90%
    08:00 +16°C° 0 mm 1 m/s 762 mmHg 88%
    09:00 +18°C° 0 mm 1 m/s 762 mmHg 80%
    10:00 +19°C° 0 mm 2 m/s 762 mmHg 73%
    11:00 +20°C° 0 mm 2 m/s 762 mmHg 65%
    12:00 +21°C° 0 mm 2 m/s 761 mmHg 63%
    13:00 +23°C° 0 mm 2 m/s 761 mmHg 60%
    14:00 +24°C° 0 mm 2 m/s 761 mmHg 57%
    15:00 +21°C° 0 mm 2 m/s 761 mmHg 65%
    16:00 +20°C° 0 mm 2 m/s 760 mmHg 72%
    17:00 +18°C° 0 mm 2 m/s 760 mmHg 80%
    18:00 +17°C° 0 mm 2 m/s 760 mmHg 84%
    19:00 +16°C° 0 mm 2 m/s 761 mmHg 88%
    20:00 +16°C° 0 mm 1 m/s 761 mmHg 92%
    21:00 +15°C° 0 mm 1 m/s 761 mmHg 92%
    22:00 +15°C° 0 mm 1 m/s 761 mmHg 92%
    23:00 +15°C° 0 mm 1 m/s 761 mmHg 92%

    Demain, 17 Octobre, Jeudi

    Heure Température Précipitation Vent Pression Humidité
    00:00 +15°C° 0 mm 1 m/s 761 mmHg 92%
    01:00 +15°C° 0 mm 1 m/s 761 mmHg 92%
    02:00 +15°C° 0 mm 1 m/s 761 mmHg 91%
    03:00 +14°C° 0 mm 1 m/s 761 mmHg 91%
    04:00 +14°C° 0 mm 1 m/s 761 mmHg 91%
    05:00 +14°C° 0 mm 1 m/s 761 mmHg 91%
    06:00 +15°C° 0 mm 1 m/s 761 mmHg 87%
    07:00 +16°C° 0 mm 1 m/s 761 mmHg 84%
    08:00 +16°C° 0 mm 0 m/s 761 mmHg 81%
    09:00 +19°C° 0 mm 1 m/s 761 mmHg 72%
    10:00 +21°C° 0 mm 1 m/s 762 mmHg 63%
    11:00 +23°C° 0 mm 1 m/s 762 mmHg 54%
    12:00 +24°C° 0 mm 1 m/s 762 mmHg 51%
    13:00 +25°C° 0 mm 2 m/s 761 mmHg 48%
    14:00 +25°C° 0 mm 2 m/s 761 mmHg 45%
    15:00 +24°C° 0 mm 2 m/s 761 mmHg 52%
    16:00 +21°C° 0 mm 2 m/s 761 mmHg 59%
    17:00 +20°C° 0 mm 2 m/s 761 mmHg 66%
    18:00 +20°C° 0 mm 1 m/s 761 mmHg 70%
    19:00 +19°C° 0 mm 1 m/s 761 mmHg 75%
    20:00 +18°C° 0 mm 1 m/s 762 mmHg 79%
    21:00 +18°C° 0 mm 1 m/s 762 mmHg 79%
    22:00 +15°C° 0 mm 0 m/s 762 mmHg 79%
    23:00 +15°C° 0 mm 0 m/s 762 mmHg 79%

    Après-demain, 18 Octobre, Vendredi

    Heure Température Précipitation Vent Pression Humidité
    00:00 +15°C° 0 mm 0 m/s 762 mmHg 80%
    01:00 +14°C° 0 mm 0 m/s 762 mmHg 80%
    02:00 +14°C° 0 mm 0 m/s 761 mmHg 80%
    03:00 +14°C° 0 mm 0 m/s 761 mmHg 79%
    04:00 +14°C° 0 mm 0 m/s 762 mmHg 79%
    05:00 +14°C° 0 mm 0 m/s 762 mmHg 78%
    06:00 +15°C° 0 mm 0 m/s 762 mmHg 74%
    07:00 +16°C° 0 mm 0 m/s 762 mmHg 71%
    08:00 +16°C° 0 mm 0 m/s 762 mmHg 67%
    09:00 +20°C° 0 mm 1 m/s 762 mmHg 60%
    10:00 +22°C° 0 mm 1 m/s 762 mmHg 54%
    11:00 +24°C° 0 mm 1 m/s 762 mmHg 47%
    12:00 +24°C° 0 mm 1 m/s 762 mmHg 46%
    13:00 +25°C° 0 mm 2 m/s 761 mmHg 44%
    14:00 +25°C° 0 mm 2 m/s 761 mmHg 43%
    15:00 +24°C° 0 mm 2 m/s 761 mmHg 50%
    16:00 +21°C° 0 mm 2 m/s 761 mmHg 57%
    17:00 +20°C° 0 mm 2 m/s 761 mmHg 64%
    18:00 +19°C° 0 mm 2 m/s 761 mmHg 69%
    19:00 +19°C° 0 mm 1 m/s 761 mmHg 75%
    20:00 +16°C° 0 mm 1 m/s 761 mmHg 80%
    21:00 +16°C° 0 mm 1 m/s 761 mmHg 80%
    22:00 +15°C° 0 mm 0 m/s 761 mmHg 81%
    23:00 +14°C° 0 mm 0 m/s 762 mmHg 81%

    19 Octobre, Samedi

    Heure Température Précipitation Vent Pression Humidité
    00:00 +14°C° 0 mm 0 m/s 762 mmHg 80%
    01:00 +14°C° 0 mm 0 m/s 761 mmHg 79%
    02:00 +15°C° 0 mm 1 m/s 761 mmHg 78%
    03:00 +14°C° 0 mm 0 m/s 761 mmHg 77%
    04:00 +14°C° 0 mm 0 m/s 761 mmHg 76%
    05:00 +13°C° 0 mm 0 m/s 761 mmHg 75%
    06:00 +14°C° 0 mm 0 m/s 762 mmHg 71%
    07:00 +15°C° 0 mm 0 m/s 762 mmHg 67%
    08:00 +16°C° 0 mm 0 m/s 762 mmHg 64%
    09:00 +20°C° 0 mm 1 m/s 762 mmHg 57%
    10:00 +22°C° 0 mm 1 m/s 762 mmHg 51%
    11:00 +24°C° 0 mm 1 m/s 762 mmHg 44%
    12:00 +24°C° 0 mm 1 m/s 762 mmHg 43%
    13:00 +25°C° 0 mm 2 m/s 762 mmHg 41%
    14:00 +25°C° 0 mm 2 m/s 761 mmHg 40%
    15:00 +24°C° 0 mm 2 m/s 761 mmHg 47%
    16:00 +21°C° 0 mm 2 m/s 761 mmHg 55%
    17:00 +20°C° 0 mm 2 m/s 761 mmHg 63%
    18:00 +19°C° 0 mm 2 m/s 762 mmHg 67%
    19:00 +18°C° 0 mm 1 m/s 762 mmHg 71%
    20:00 +16°C° 0 mm 1 m/s 762 mmHg 76%
    21:00 +16°C° 0 mm 1 m/s 762 mmHg 77%
    22:00 +16°C° 0 mm 1 m/s 762 mmHg 77%
    23:00 +14°C° 0 mm 0 m/s 763 mmHg 78%

    20 Octobre, Dimanche

    Heure Température Précipitation Vent Pression Humidité
    00:00 +14°C° 0 mm 0 m/s 762 mmHg 77%
    01:00 +14°C° 0 mm 0 m/s 762 mmHg 77%
    02:00 +14°C° 0 mm 0 m/s 762 mmHg 76%
    03:00 +14°C° 0 mm 0 m/s 762 mmHg 76%
    04:00 +14°C° 0 mm 0 m/s 762 mmHg 75%
    05:00 +13°C° 0 mm 0 m/s 763 mmHg 74%
    06:00 +14°C° 0 mm 0 m/s 763 mmHg 71%
    07:00 +15°C° 0 mm 0 m/s 763 mmHg 67%
    08:00 +16°C° 0 mm 0 m/s 763 mmHg 64%
    09:00 +20°C° 0 mm 1 m/s 763 mmHg 59%
    10:00 +21°C° 0 mm 1 m/s 763 mmHg 54%
    11:00 +23°C° 0 mm 2 m/s 763 mmHg 50%
    12:00 +24°C° 0 mm 2 m/s 763 mmHg 48%
    13:00 +24°C° 0 mm 2 m/s 763 mmHg 47%
    14:00 +25°C° 0 mm 2 m/s 763 mmHg 45%
    15:00 +23°C° 0 mm 2 m/s 763 mmHg 53%
    16:00 +21°C° 0 mm 2 m/s 763 mmHg 62%
    17:00 +19°C° 0 mm 2 m/s 763 mmHg 70%
    18:00 +18°C° 0 mm 2 m/s 763 mmHg 75%
    19:00 +17°C° 0 mm 2 m/s 763 mmHg 81%
    20:00 +16°C° 0 mm 1 m/s 763 mmHg 86%
    21:00 +15°C° 0 mm 1 m/s 764 mmHg 87%
    22:00 +15°C° 0 mm 1 m/s 764 mmHg 88%
    23:00 +15°C° 0 mm 1 m/s 764 mmHg 89%

    21 Octobre, Lundi

    Heure Température Précipitation Vent Pression Humidité
    00:00 +14°C° 0 mm 1 m/s 764 mmHg 89%
    01:00 +14°C° 0 mm 1 m/s 764 mmHg 89%
    02:00 +14°C° 0 mm 1 m/s 764 mmHg 89%
    03:00 +14°C° 0 mm 1 m/s 764 mmHg 89%
    04:00 +14°C° 0 mm 1 m/s 764 mmHg 89%
    05:00 +14°C° 0 mm 1 m/s 764 mmHg 88%
    06:00 +15°C° 0 mm 1 m/s 764 mmHg 86%
    07:00 +15°C° 0 mm 1 m/s 764 mmHg 83%
    08:00 +16°C° 0 mm 1 m/s 764 mmHg 80%
    09:00 +18°C° 0 mm 2 m/s 764 mmHg 73%
    10:00 +20°C° 0 mm 2 m/s 764 mmHg 66%
    11:00 +21°C° 0 mm 3 m/s 765 mmHg 60%
    12:00 +22°C° 0 mm 3 m/s 764 mmHg 57%
    13:00 +24°C° 0 mm 3 m/s 764 mmHg 55%
    14:00 +23°C° 0 mm 4 m/s 764 mmHg 52%
    15:00 +22°C° 0 mm 3 m/s 764 mmHg 57%
    16:00 +20°C° 0 mm 3 m/s 764 mmHg 62%
    17:00 +19°C° 0 mm 3 m/s 763 mmHg 67%
    18:00 +18°C° 0 mm 3 m/s 764 mmHg 72%
    19:00 +17°C° 0 mm 2 m/s 764 mmHg 77%
    20:00 +16°C° 0 mm 2 m/s 764 mmHg 82%
    21:00 +16°C° 0 mm 2 m/s 764 mmHg 84%
    22:00 +16°C° 0 mm 2 m/s 764 mmHg 85%
    23:00 +15°C° 0 mm 2 m/s 764 mmHg 86%
    Voir plus